QPF
0.01 0.01 0.02 0.02 0.02 0.02 0.02 0.04 0.05 0.07 0.10 0.11 0.13 0.15 0.16 0.17 0.20 0.21 0.20 0.20 0.19 0.20 0.20 0.20 0.24 0.23 0.20 0.17 0.15 0.12 0.09 0.07 0.06 0.04 0.02 0.01 0.00 0.00 0.00 0.00 0.00 0.00 0.00
0.01 0.01 0.03 0.05 0.06 0.07 0.07 0.07 0.08 0.11 0.16 0.20 0.23 0.27 0.30 0.32 0.36 0.33 0.30 0.30 0.32 0.31 0.30 0.29 0.27 0.26 0.25 0.23 0.21 0.17 0.13 0.10 0.07 0.04 0.03 0.01 0.00 0.00 0.00 0.00 0.00 0.00 0.00
0.02 0.03 0.04 0.06 0.07 0.08 0.11 0.13 0.13 0.16 0.18 0.23 0.30 0.39 0.44 0.47 0.48 0.43 0.40 0.38 0.38 0.40 0.42 0.40 0.36 0.34 0.33 0.29 0.26 0.20 0.15 0.09 0.06 0.03 0.02 0.01 0.00 0.00 0.00 0.00 0.00 0.00 0.00
0.03 0.04 0.05 0.05 0.05 0.07 0.10 0.17 0.18 0.21 0.28 0.33 0.40 0.50 0.56 0.60 0.61 0.61 0.58 0.54 0.50 0.48 0.48 0.46 0.43 0.40 0.36 0.30 0.25 0.20 0.13 0.09 0.06 0.04 0.03 0.02 0.01 0.00 0.00 0.00 0.00 0.00 0.00
0.05 0.06 0.07 0.07 0.09 0.09 0.12 0.17 0.18 0.21 0.31 0.45 0.58 0.68 0.74 0.73 0.70 0.68 0.63 0.56 0.49 0.45 0.40 0.35 0.32 0.29 0.27 0.23 0.18 0.13 0.10 0.09 0.08 0.06 0.04 0.02 0.01 0.00 0.00 0.00 0.00 0.00 0.00
0.06 0.07 0.08 0.09 0.10 0.09 0.10 0.13 0.15 0.18 0.29 0.42 0.53 0.62 0.70 0.71 0.68 0.64 0.51 0.42 0.37 0.34 0.30 0.23 0.18 0.16 0.13 0.11 0.09 0.08 0.08 0.07 0.06 0.04 0.02 0.01 0.00 0.00 0.00 0.00 0.00 0.00 0.00
0.07 0.08 0.09 0.10 0.10 0.09 0.10 0.10 0.12 0.16 0.21 0.27 0.32 0.35 0.38 0.40 0.39 0.38 0.37 0.33 0.27 0.22 0.16 0.10 0.08 0.08 0.07 0.06 0.06 0.05 0.04 0.03 0.02 0.01 0.01 0.00 0.00 0.00 0.00 0.00 0.00 0.00 0.00
0.06 0.07 0.08 0.09 0.13 0.14 0.13 0.12 0.12 0.14 0.14 0.15 0.18 0.20 0.21 0.21 0.21 0.21 0.19 0.16 0.13 0.10 0.07 0.05 0.04 0.04 0.03 0.02 0.02 0.01 0.01 0.00 0.00 0.00 0.00 0.00 0.00 0.00 0.00 0.00 0.00 0.00 0.00
0.06 0.08 0.08 0.08 0.09 0.10 0.11 0.09 0.09 0.12 0.13 0.12 0.12 0.13 0.15 0.16 0.15 0.12 0.10 0.08 0.06 0.05 0.04 0.02 0.02 0.01 0.01 0.01 0.00 0.00 0.00 0.00 0.00 0.00 0.00 0.00 0.00 0.00 0.00 0.00 0.00 0.00 0.00
0.05 0.07 0.08 0.07 0.07 0.07 0.07 0.07 0.06 0.07 0.09 0.10 0.10 0.08 0.07 0.06 0.05 0.05 0.04 0.03 0.03 0.02 0.02 0.01 0.01 0.00 0.00 0.00 0.00 0.00 0.00 0.00 0.00 0.00 0.00 0.00 0.00 0.00 0.00 0.00 0.00 0.00 0.00
0.04 0.04 0.05 0.06 0.06 0.05 0.05 0.05 0.05 0.05 0.05 0.06 0.06 0.04 0.03 0.02 0.02 0.02 0.01 0.01 0.01 0.01 0.01 0.00 0.00 0.00 0.00 0.00 0.00 0.00 0.00 0.00 0.00 0.00 0.00 0.00 0.00 0.00 0.00 0.00 0.00 0.00 0.00
0.04 0.04 0.03 0.04 0.03 0.03 0.02 0.02 0.02 0.02 0.03 0.03 0.02 0.02 0.01 0.01 0.01 0.01 0.01 0.01 0.01 0.01 0.01 0.01 0.01 0.01 0.01 0.01 0.01 0.01 0.01 0.00 0.00 0.00 0.00 0.00 0.00 0.00 0.00 0.00 0.00 0.00 0.00
0.07 0.07 0.07 0.06 0.04 0.03 0.03 0.03 0.03 0.02 0.02 0.02 0.02 0.01 0.01 0.01 0.01 0.01 0.01 0.01 0.01 0.01 0.01 0.01 0.01 0.01 0.01 0.01 0.00 0.00 0.00 0.00 0.00 0.00 0.00 0.00 0.00 0.00 0.00 0.00 0.00 0.00 0.00
0.09 0.10 0.09 0.07 0.05 0.03 0.03 0.02 0.01 0.01 0.01 0.01 0.01 0.01 0.01 0.01 0.01 0.01 0.01 0.01 0.01 0.00 0.00 0.00 0.00 0.00 0.00 0.00 0.00 0.00 0.00 0.00 0.00 0.00 0.00 0.00 0.00 0.00 0.00 0.00 0.00 0.00 0.00
0.08 0.08 0.07 0.05 0.03 0.02 0.02 0.01 0.01 0.01 0.00 0.00 0.00 0.00 0.00 0.01 0.01 0.01 0.00 0.00 0.00 0.00 0.00 0.00 0.00 0.00 0.00 0.00 0.00 0.00 0.00 0.00 0.00 0.00 0.00 0.00 0.00 0.00 0.00 0.01 0.00 0.00 0.00
0.10 0.09 0.08 0.07 0.04 0.03 0.02 0.01 0.01 0.00 0.00 0.00 0.00 0.00 0.00 0.00 0.00 0.00 0.00 0.00 0.00 0.00 0.00 0.00 0.00 0.00 0.00 0.00 0.00 0.00 0.00 0.00 0.00 0.00 0.00 0.00 0.00 0.00 0.00 0.00 0.00 0.00 0.00
0.10 0.10 0.10 0.08 0.05 0.04 0.02 0.01 0.01 0.00 0.00 0.00 0.00 0.00 0.00 0.00 0.00 0.00 0.00 0.00 0.00 0.00 0.00 0.00 0.00 0.00 0.00 0.00 0.00 0.00 0.00 0.00 0.00 0.00 0.00 0.00 0.00 0.00 0.00 0.00 0.00 0.00 0.00
0.13 0.13 0.11 0.08 0.05 0.03 0.02 0.01 0.01 0.00 0.00 0.00 0.00 0.00 0.00 0.00 0.00 0.00 0.00 0.00 0.00 0.00 0.00 0.00 0.00 0.00 0.00 0.00 0.00 0.00 0.00 0.00 0.00 0.00 0.00 0.00 0.00 0.00 0.00 0.00 0.00 0.00 0.00
0.16 0.14 0.10 0.06 0.03 0.02 0.01 0.01 0.00 0.00 0.00 0.00 0.00 0.00 0.00 0.00 0.00 0.00 0.00 0.00 0.00 0.00 0.00 0.00 0.00 0.00 0.00 0.00 0.00 0.00 0.00 0.00 0.00 0.00 0.00 0.00 0.00 0.00 0.00 0.00 0.00 0.00 0.01
0.11 0.08 0.05 0.03 0.02 0.01 0.00 0.00 0.00 0.00 0.00 0.00 0.00 0.00 0.00 0.00 0.00 0.00 0.00 0.00 0.00 0.00 0.00 0.00 0.00 0.00 0.00 0.00 0.00 0.00 0.00 0.00 0.00 0.00 0.00 0.00 0.00 0.00 0.01 0.01 0.01 0.02 0.02
0.06 0.04 0.02 0.01 0.00 0.00 0.00 0.00 0.00 0.00 0.00 0.00 0.00 0.00 0.00 0.00 0.00 0.00 0.00 0.00 0.00 0.00 0.00 0.00 0.00 0.00 0.00 0.00 0.00 0.00 0.00 0.00 0.00 0.00 0.00 0.00 0.00 0.00 0.01 0.02 0.02 0.02 0.01
0.03 0.02 0.01 0.00 0.00 0.00 0.00 0.00 0.00 0.00 0.00 0.00 0.00 0.00 0.00 0.00 0.00 0.00 0.00 0.00 0.00 0.00 0.00 0.00 0.00 0.00 0.00 0.00 0.00 0.00 0.00 0.00 0.00 0.01 0.01 0.00 0.00 0.01 0.01 0.02 0.01 0.01 0.01
0.02 0.01 0.00 0.00 0.00 0.00 0.00 0.00 0.00 0.00 0.00 0.00 0.00 0.00 0.00 0.00 0.00 0.00 0.00 0.00 0.00 0.00 0.00 0.00 0.00 0.00 0.00 0.00 0.00 0.00 0.00 0.01 0.01 0.02 0.02 0.01 0.01 0.01 0.01 0.01 0.01 0.01 0.01
0.01 0.00 0.00 0.00 0.00 0.00 0.00 0.00 0.00 0.00 0.00 0.00 0.00 0.00 0.00 0.00 0.00 0.00 0.00 0.00 0.00 0.00 0.00 0.00 0.00 0.00 0.00 0.00 0.00 0.00 0.00 0.02 0.03 0.03 0.03 0.02 0.01 0.01 0.01 0.01 0.01 0.01 0.01
0.00 0.00 0.00 0.00 0.00 0.00 0.00 0.00 0.00 0.00 0.00 0.00 0.00 0.00 0.00 0.00 0.00 0.00 0.00 0.00 0.00 0.00 0.00 0.00 0.00 0.00 0.00 0.00 0.00 0.01 0.01 0.02 0.03 0.03 0.03 0.03 0.03 0.02 0.02 0.02 0.01 0.01 0.01
0.00 0.00 0.00 0.00 0.00 0.00 0.00 0.00 0.00 0.00 0.00 0.00 0.00 0.00 0.00 0.00 0.00 0.00 0.00 0.00 0.00 0.00 0.00 0.00 0.00 0.00 0.01 0.01 0.00 0.01 0.01 0.02 0.03 0.03 0.03 0.04 0.02 0.01 0.01 0.01 0.01 0.01 0.00
MSLP
1012.04 1012.16 1012.23 1012.21 1012.11 1011.97 1011.83 1011.75 1011.79 1011.99 1012.36 1012.88 1013.51 1014.20 1014.88 1015.48 1015.98 1016.36 1016.63 1016.80 1016.94 1017.07 1017.23 1017.45 1017.73 1018.06 1018.42 1018.80 1019.17 1019.52 1019.84 1020.11 1020.34 1020.53 1020.68 1020.79 1020.85 1020.86 1020.82 1020.74 1020.63 1020.50 1020.37
1012.89 1012.98 1012.98 1012.86 1012.65 1012.36 1012.08 1011.87 1011.80 1011.91 1012.23 1012.74 1013.39 1014.12 1014.85 1015.51 1016.08 1016.51 1016.83 1017.06 1017.23 1017.40 1017.59 1017.82 1018.10 1018.43 1018.78 1019.13 1019.48 1019.80 1020.09 1020.35 1020.58 1020.78 1020.95 1021.09 1021.18 1021.22 1021.21 1021.15 1021.05 1020.92 1020.78
1013.67 1013.74 1013.70 1013.52 1013.22 1012.84 1012.45 1012.14 1011.99 1012.04 1012.32 1012.80 1013.46 1014.21 1014.98 1015.70 1016.32 1016.82 1017.20 1017.48 1017.71 1017.92 1018.13 1018.37 1018.65 1018.96 1019.28 1019.59 1019.88 1020.15 1020.40 1020.62 1020.83 1021.02 1021.20 1021.35 1021.47 1021.54 1021.57 1021.53 1021.45 1021.34 1021.21
1014.34 1014.42 1014.36 1014.17 1013.84 1013.42 1012.99 1012.62 1012.42 1012.43 1012.67 1013.14 1013.78 1014.54 1015.33 1016.09 1016.75 1017.30 1017.73 1018.07 1018.35 1018.59 1018.83 1019.08 1019.35 1019.63 1019.90 1020.16 1020.39 1020.60 1020.79 1020.97 1021.14 1021.31 1021.48 1021.64 1021.77 1021.86 1021.91 1021.91 1021.85 1021.77 1021.66
1014.93 1015.03 1015.00 1014.84 1014.53 1014.13 1013.70 1013.34 1013.12 1013.11 1013.33 1013.77 1014.39 1015.13 1015.91 1016.67 1017.35 1017.93 1018.40 1018.78 1019.09 1019.37 1019.63 1019.89 1020.15 1020.40 1020.63 1020.84 1021.01 1021.16 1021.30 1021.42 1021.55 1021.69 1021.84 1021.98 1022.11 1022.21 1022.27 1022.28 1022.25 1022.18 1022.09
1015.47 1015.61 1015.65 1015.56 1015.32 1014.99 1014.63 1014.31 1014.12 1014.11 1014.31 1014.71 1015.29 1015.98 1016.71 1017.44 1018.10 1018.68 1019.16 1019.56 1019.90 1020.20 1020.48 1020.74 1020.99 1021.22 1021.43 1021.60 1021.73 1021.83 1021.91 1021.99 1022.08 1022.17 1022.28 1022.40 1022.51 1022.59 1022.64 1022.66 1022.63 1022.57 1022.49
1016.01 1016.23 1016.36 1016.37 1016.24 1016.02 1015.76 1015.52 1015.37 1015.38 1015.56 1015.92 1016.43 1017.05 1017.71 1018.37 1018.98 1019.52 1019.98 1020.38 1020.73 1021.04 1021.32 1021.59 1021.84 1022.06 1022.25 1022.40 1022.50 1022.57 1022.61 1022.65 1022.69 1022.74 1022.81 1022.88 1022.94 1022.99 1023.01 1023.01 1022.97 1022.91 1022.83
1016.61 1016.92 1017.15 1017.28 1017.29 1017.21 1017.06 1016.92 1016.84 1016.87 1017.03 1017.34 1017.77 1018.29 1018.85 1019.41 1019.94 1020.42 1020.84 1021.21 1021.54 1021.85 1022.14 1022.41 1022.66 1022.88 1023.06 1023.19 1023.28 1023.33 1023.35 1023.35 1023.35 1023.35 1023.36 1023.37 1023.37 1023.37 1023.35 1023.31 1023.25 1023.17 1023.07
1017.28 1017.68 1018.03 1018.28 1018.43 1018.48 1018.47 1018.43 1018.42 1018.48 1018.63 1018.88 1019.22 1019.63 1020.07 1020.52 1020.95 1021.34 1021.70 1022.03 1022.34 1022.63 1022.91 1023.17 1023.42 1023.64 1023.81 1023.94 1024.02 1024.06 1024.06 1024.03 1023.99 1023.93 1023.88 1023.82 1023.76 1023.69 1023.62 1023.53 1023.43 1023.32 1023.20
1018.01 1018.50 1018.95 1019.33 1019.61 1019.79 1019.89 1019.96 1020.01 1020.10 1020.23 1020.43 1020.69 1020.99 1021.32 1021.65 1021.97 1022.27 1022.56 1022.83 1023.09 1023.36 1023.62 1023.87 1024.11 1024.32 1024.48 1024.61 1024.68 1024.70 1024.69 1024.63 1024.54 1024.44 1024.32 1024.20 1024.07 1023.93 1023.79 1023.65 1023.51 1023.37 1023.22
1018.77 1019.34 1019.88 1020.35 1020.74 1021.03 1021.24 1021.39 1021.51 1021.62 1021.75 1021.90 1022.09 1022.29 1022.51 1022.74 1022.96 1023.17 1023.38 1023.60 1023.81 1024.04 1024.26 1024.49 1024.70 1024.89 1025.05 1025.16 1025.21 1025.22 1025.18 1025.09 1024.97 1024.82 1024.65 1024.46 1024.26 1024.06 1023.86 1023.67 1023.49 1023.31 1023.14
1019.50 1020.13 1020.74 1021.28 1021.75 1022.13 1022.42 1022.65 1022.82 1022.96 1023.09 1023.22 1023.35 1023.48 1023.61 1023.75 1023.88 1024.02 1024.16 1024.32 1024.48 1024.66 1024.84 1025.03 1025.21 1025.36 1025.49 1025.57 1025.61 1025.59 1025.53 1025.41 1025.25 1025.06 1024.84 1024.60 1024.34 1024.09 1023.84 1023.60 1023.39 1023.18 1022.98
1020.16 1020.84 1021.48 1022.07 1022.59 1023.03 1023.39 1023.68 1023.90 1024.07 1024.21 1024.32 1024.41 1024.50 1024.57 1024.64 1024.71 1024.79 1024.87 1024.97 1025.08 1025.21 1025.35 1025.48 1025.62 1025.73 1025.81 1025.86 1025.87 1025.82 1025.73 1025.59 1025.40 1025.17 1024.91 1024.63 1024.33 1024.04 1023.75 1023.47 1023.22 1022.98 1022.75
1020.74 1021.43 1022.09 1022.70 1023.25 1023.73 1024.14 1024.47 1024.73 1024.93 1025.09 1025.20 1025.28 1025.33 1025.37 1025.40 1025.42 1025.45 1025.49 1025.54 1025.61 1025.68 1025.77 1025.85 1025.93 1025.99 1026.03 1026.04 1026.01 1025.93 1025.81 1025.65 1025.44 1025.19 1024.90 1024.59 1024.26 1023.93 1023.60 1023.29 1023.00 1022.73 1022.48
1021.23 1021.92 1022.58 1023.20 1023.76 1024.25 1024.69 1025.05 1025.34 1025.58 1025.75 1025.87 1025.95 1025.99 1026.00 1026.01 1026.00 1026.00 1026.00 1026.01 1026.04 1026.07 1026.11 1026.14 1026.17 1026.17 1026.16 1026.13 1026.06 1025.95 1025.81 1025.63 1025.40 1025.13 1024.83 1024.49 1024.14 1023.78 1023.42 1023.08 1022.75 1022.45 1022.16
1021.66 1022.35 1022.99 1023.60 1024.15 1024.65 1025.10 1025.48 1025.80 1026.05 1026.23 1026.36 1026.44 1026.48 1026.48 1026.47 1026.44 1026.42 1026.40 1026.39 1026.38 1026.38 1026.37 1026.36 1026.34 1026.30 1026.24 1026.16 1026.06 1025.93 1025.77 1025.56 1025.32 1025.04 1024.72 1024.37 1024.00 1023.60 1023.21 1022.83 1022.47 1022.12 1021.79
1022.10 1022.77 1023.39 1023.97 1024.51 1025.00 1025.44 1025.82 1026.15 1026.40 1026.60 1026.73 1026.80 1026.83 1026.83 1026.80 1026.77 1026.73 1026.70 1026.67 1026.65 1026.62 1026.58 1026.54 1026.48 1026.40 1026.30 1026.19 1026.05 1025.89 1025.71 1025.49 1025.23 1024.93 1024.60 1024.23 1023.83 1023.41 1022.98 1022.56 1022.15 1021.77 1021.40
1022.59 1023.23 1023.83 1024.38 1024.89 1025.35 1025.78 1026.15 1026.46 1026.70 1026.88 1027.00 1027.07 1027.08 1027.07 1027.04 1027.00 1026.96 1026.92 1026.89 1026.85 1026.81 1026.77 1026.70 1026.61 1026.50 1026.38 1026.23 1026.06 1025.88 1025.66 1025.42 1025.14 1024.82 1024.46 1024.07 1023.64 1023.18 1022.72 1022.26 1021.80 1021.37 1020.97
1023.16 1023.77 1024.33 1024.84 1025.32 1025.75 1026.14 1026.48 1026.76 1026.97 1027.13 1027.22 1027.26 1027.26 1027.23 1027.19 1027.15 1027.11 1027.08 1027.05 1027.03 1026.99 1026.94 1026.86 1026.76 1026.64 1026.48 1026.31 1026.11 1025.89 1025.64 1025.36 1025.05 1024.70 1024.31 1023.88 1023.41 1022.92 1022.42 1021.92 1021.43 1020.97 1020.54
1023.81 1024.38 1024.90 1025.37 1025.79 1026.18 1026.52 1026.81 1027.04 1027.22 1027.33 1027.39 1027.40 1027.38 1027.33 1027.29 1027.25 1027.22 1027.20 1027.19 1027.18 1027.16 1027.12 1027.05 1026.94 1026.80 1026.63 1026.42 1026.18 1025.92 1025.62 1025.30 1024.95 1024.55 1024.12 1023.65 1023.15 1022.63 1022.09 1021.56 1021.04 1020.56 1020.11
1024.50 1025.03 1025.49 1025.91 1026.28 1026.60 1026.89 1027.12 1027.30 1027.42 1027.49 1027.50 1027.48 1027.44 1027.38 1027.33 1027.30 1027.29 1027.29 1027.31 1027.32 1027.33 1027.30 1027.24 1027.13 1026.98 1026.78 1026.54 1026.26 1025.95 1025.61 1025.23 1024.82 1024.38 1023.90 1023.39 1022.85 1022.30 1021.74 1021.20 1020.67 1020.18 1019.73
1025.18 1025.65 1026.06 1026.41 1026.71 1026.97 1027.19 1027.36 1027.48 1027.55 1027.57 1027.55 1027.50 1027.44 1027.39 1027.34 1027.32 1027.33 1027.36 1027.41 1027.45 1027.48 1027.47 1027.42 1027.31 1027.15 1026.93 1026.65 1026.33 1025.97 1025.57 1025.13 1024.67 1024.18 1023.65 1023.11 1022.55 1021.97 1021.41 1020.86 1020.33 1019.85 1019.42
1025.77 1026.17 1026.51 1026.80 1027.04 1027.23 1027.38 1027.49 1027.56 1027.58 1027.57 1027.52 1027.46 1027.40 1027.34 1027.31 1027.32 1027.35 1027.41 1027.48 1027.55 1027.60 1027.61 1027.56 1027.45 1027.27 1027.03 1026.72 1026.36 1025.94 1025.49 1025.01 1024.50 1023.96 1023.41 1022.84 1022.26 1021.68 1021.12 1020.58 1020.07 1019.61 1019.20
1026.22 1026.56 1026.82 1027.04 1027.21 1027.34 1027.44 1027.50 1027.52 1027.51 1027.48 1027.42 1027.36 1027.30 1027.26 1027.26 1027.29 1027.35 1027.43 1027.53 1027.61 1027.68 1027.69 1027.65 1027.53 1027.34 1027.07 1026.73 1026.33 1025.89 1025.40 1024.88 1024.33 1023.77 1023.19 1022.61 1022.04 1021.47 1020.92 1020.40 1019.92 1019.48 1019.09
1026.51 1026.77 1026.96 1027.11 1027.22 1027.30 1027.35 1027.38 1027.38 1027.35 1027.32 1027.27 1027.22 1027.18 1027.17 1027.19 1027.24 1027.32 1027.43 1027.54 1027.63 1027.70 1027.72 1027.67 1027.54 1027.33 1027.05 1026.69 1026.28 1025.81 1025.30 1024.76 1024.21 1023.64 1023.06 1022.49 1021.93 1021.38 1020.85 1020.36 1019.90 1019.47 1019.09
1026.63 1026.82 1026.95 1027.04 1027.10 1027.14 1027.16 1027.17 1027.16 1027.14 1027.12 1027.09 1027.07 1027.07 1027.08 1027.13 1027.20 1027.30 1027.41 1027.53 1027.62 1027.68 1027.69 1027.63 1027.50 1027.29 1027.00 1026.64 1026.22 1025.75 1025.25 1024.72 1024.17 1023.62 1023.06 1022.51 1021.98 1021.45 1020.95 1020.47 1020.02 1019.60 1019.22
Thickness
5747 5751 5754 5757 5758 5757 5757 5758 5757 5756 5752 5748 5743 5739 5734 5730 5725 5721 5719 5716 5714 5711 5707 5703 5699 5697 5693 5689 5685 5681 5676 5672 5671 5670 5667 5665 5664 5663 5661 5660 5658 5656 5654
5739 5741 5744 5747 5750 5751 5752 5752 5752 5750 5749 5746 5741 5736 5731 5723 5718 5714 5711 5708 5706 5703 5699 5695 5692 5688 5684 5680 5676 5674 5668 5663 5661 5661 5658 5655 5653 5651 5650 5648 5647 5644 5643
5728 5731 5735 5739 5741 5743 5744 5746 5746 5745 5743 5740 5735 5729 5723 5716 5709 5704 5701 5697 5694 5692 5689 5686 5683 5679 5676 5671 5668 5666 5662 5656 5651 5650 5650 5647 5644 5639 5637 5635 5633 5631 5629
5720 5723 5725 5729 5731 5733 5735 5737 5737 5737 5735 5732 5727 5722 5715 5707 5701 5696 5691 5686 5683 5681 5678 5675 5672 5669 5665 5661 5658 5655 5652 5649 5643 5639 5636 5634 5633 5630 5626 5623 5620 5618 5615
5710 5712 5714 5717 5720 5722 5724 5725 5726 5725 5724 5723 5719 5714 5706 5699 5693 5686 5680 5675 5671 5669 5665 5662 5660 5658 5653 5650 5647 5643 5640 5637 5632 5629 5624 5621 5618 5616 5614 5610 5606 5603 5600
5699 5701 5702 5705 5707 5709 5711 5713 5713 5711 5710 5709 5706 5702 5695 5688 5682 5674 5667 5662 5658 5655 5651 5648 5646 5643 5640 5636 5633 5629 5626 5622 5618 5615 5611 5608 5605 5600 5597 5594 5589 5586 5584
5686 5688 5690 5692 5693 5695 5696 5696 5696 5694 5693 5693 5690 5686 5680 5674 5668 5661 5654 5649 5644 5641 5636 5634 5631 5627 5624 5621 5618 5614 5610 5606 5603 5599 5594 5591 5587 5584 5580 5576 5572 5569 5567
5674 5675 5676 5677 5678 5679 5679 5680 5680 5678 5676 5675 5673 5669 5663 5657 5651 5645 5639 5634 5629 5624 5621 5618 5615 5611 5608 5605 5601 5597 5593 5589 5586 5582 5578 5574 5570 5566 5563 5559 5555 5552 5549
5661 5660 5660 5661 5662 5663 5663 5664 5663 5660 5657 5656 5653 5649 5644 5639 5633 5628 5624 5619 5614 5609 5605 5602 5598 5595 5591 5588 5584 5579 5574 5571 5568 5564 5560 5556 5552 5548 5544 5540 5537 5534 5533
5647 5646 5645 5645 5646 5646 5645 5645 5644 5642 5640 5637 5634 5630 5626 5621 5616 5612 5607 5602 5597 5593 5589 5586 5582 5577 5573 5569 5565 5561 5557 5553 5549 5545 5541 5537 5533 5529 5526 5522 5517 5514 5512
5634 5632 5630 5629 5629 5628 5628 5627 5626 5626 5622 5618 5615 5612 5608 5604 5601 5596 5591 5586 5581 5577 5573 5568 5564 5560 5555 5550 5547 5542 5538 5534 5530 5525 5522 5518 5514 5510 5506 5502 5498 5495 5491
5620 5618 5616 5614 5613 5612 5611 5610 5608 5607 5603 5601 5597 5593 5590 5587 5583 5578 5573 5570 5565 5560 5555 5551 5547 5542 5537 5532 5528 5523 5519 5515 5511 5507 5503 5499 5496 5492 5488 5484 5480 5476 5472
5609 5606 5603 5600 5598 5596 5594 5593 5591 5588 5586 5584 5580 5576 5572 5569 5565 5561 5557 5553 5548 5543 5539 5535 5529 5524 5519 5514 5509 5505 5500 5496 5492 5488 5484 5480 5477 5475 5471 5467 5464 5460 5457
5598 5594 5590 5586 5583 5581 5579 5577 5573 5572 5570 5567 5563 5559 5555 5552 5548 5545 5541 5537 5532 5527 5522 5517 5512 5506 5502 5497 5492 5487 5483 5478 5474 5470 5466 5463 5460 5458 5455 5453 5449 5446 5443
5587 5582 5577 5572 5570 5567 5564 5562 5559 5556 5554 5551 5547 5543 5540 5537 5534 5530 5526 5521 5516 5511 5506 5501 5496 5491 5486 5480 5475 5469 5464 5459 5455 5451 5448 5447 5446 5444 5441 5440 5437 5435 5433
5577 5571 5566 5561 5557 5554 5551 5547 5544 5541 5539 5536 5532 5529 5526 5523 5518 5514 5510 5506 5501 5496 5491 5486 5480 5475 5470 5464 5458 5452 5446 5441 5436 5433 5432 5431 5431 5430 5429 5428 5427 5426 5425
5566 5560 5555 5549 5545 5541 5537 5534 5531 5528 5526 5522 5519 5515 5512 5509 5505 5501 5496 5491 5486 5481 5476 5471 5465 5459 5454 5448 5441 5435 5429 5424 5420 5418 5417 5418 5418 5418 5418 5419 5419 5420 5419
5555 5548 5542 5536 5532 5528 5525 5522 5519 5517 5513 5509 5506 5504 5500 5497 5492 5488 5483 5478 5473 5468 5463 5457 5451 5445 5439 5432 5426 5421 5416 5412 5410 5408 5407 5407 5409 5410 5410 5411 5413 5415 5417
5544 5537 5531 5526 5521 5518 5514 5512 5508 5505 5502 5498 5496 5493 5489 5485 5481 5477 5472 5467 5461 5456 5451 5445 5439 5433 5427 5422 5416 5412 5407 5405 5403 5403 5403 5403 5404 5405 5405 5407 5409 5412 5416
5532 5526 5520 5515 5511 5507 5504 5501 5497 5494 5491 5489 5486 5482 5479 5475 5471 5467 5462 5456 5451 5446 5441 5435 5429 5423 5418 5413 5409 5404 5401 5399 5399 5400 5401 5402 5402 5404 5405 5406 5408 5411 5415
5521 5516 5511 5506 5502 5498 5495 5491 5488 5485 5483 5480 5477 5474 5471 5467 5463 5458 5453 5448 5443 5438 5432 5426 5421 5416 5411 5407 5403 5399 5396 5395 5396 5398 5401 5403 5404 5406 5408 5409 5410 5411 5413
5510 5506 5502 5497 5493 5490 5487 5483 5480 5478 5475 5472 5469 5466 5463 5460 5457 5451 5446 5441 5436 5431 5425 5419 5415 5410 5406 5402 5400 5397 5396 5395 5395 5398 5400 5403 5406 5408 5411 5413 5414 5415 5416
5501 5497 5493 5488 5485 5482 5479 5476 5474 5471 5468 5465 5462 5459 5457 5453 5450 5446 5441 5435 5430 5425 5419 5414 5410 5407 5403 5401 5399 5398 5398 5398 5398 5400 5403 5406 5409 5412 5414 5416 5417 5418 5418
5493 5489 5486 5482 5478 5476 5473 5471 5468 5465 5462 5459 5456 5453 5450 5447 5444 5440 5436 5431 5426 5421 5416 5412 5408 5404 5402 5401 5399 5399 5400 5401 5402 5404 5407 5410 5413 5415 5417 5418 5420 5420 5419
5486 5483 5479 5476 5473 5471 5468 5465 5462 5459 5456 5454 5451 5447 5445 5442 5439 5436 5431 5428 5423 5418 5414 5410 5406 5403 5401 5401 5399 5398 5400 5401 5403 5406 5409 5412 5414 5417 5418 5420 5421 5421 5421
5481 5478 5475 5472 5469 5466 5463 5461 5458 5455 5452 5449 5446 5443 5441 5438 5435 5432 5428 5424 5421 5417 5413 5409 5406 5403 5402 5401 5401 5402 5404 5405 5407 5409 5410 5412 5413 5415 5417 5419 5420 5422 5421